Regional Weather Roundup
Issued by NWS

Home | Current Version | Previous Version | Graphics & Text | Print | Product List | Glossary On
Versions: 1 2 3 4 5 6 7 8 9 10 11 12 13 14 15 16 17 18 19 20 21 22 23 24 25 26 27
000
ASUS45 KCYS 191710
RWRWY

WYOMING REGIONAL WEATHER ROUNDUP
NATIONAL WEATHER SERVICE CHEYENNE WY
1000 AM MST MON FEB 19 2018

NOTE:  "FAIR" INDICATES FEW OR NO CLOUDS BELOW 12,000 FEET
WITH NO SIGNIFICANT WEATHER AND/OR OBSTRUCTIONS TO VISIBILITY.

WYZ001-191800-
YELLOWSTONE NATIONAL PARK

CITY           SKY/WX    TMP DP  RH WIND       PRES   REMARKS
LK YELLOWSTONE   N/A     -1  -5  82 CALM      29.46R
W YELLOWSTONE  NOT AVBL

$$
WYZ002>013-054>058-071-098>099-191800-
NORTHERN WYOMING

CITY           SKY/WX    TMP DP  RH WIND       PRES   REMARKS
JACKSON        PTSUNNY   13   4  67 NE10      29.46F WCI   0
CODY           FAIR      -4 -12  68 N15       29.79F WCI -25
GREYBULL       LGT SNOW   0  -5  79 NW14      29.87S WCI -19
WORLAND        SNOW       1  -3  83 N9        29.85R VSB 1/2 WCI -14
SHERIDAN       LGT SNOW   1  -4  79 W3        29.93R VSB 1
BUFFALO        SNOW      -1  -5  82 N3        29.82F VSB 1/2
GILLETTE       SNOW       0  -6  76 NE9       29.85F VSB 1/2 WCI -15
HULETT         CLOUDY     1  -6  71 MISG      29.89S HAZE
NEWCASTLE      HVY SNOW   3  -4  72 MISG      29.88F VSB 1/4

$$
WYZ014>020-022>026-101>103-191800-
CENTRAL WYOMING

CITY           SKY/WX    TMP DP  RH WIND       PRES   REMARKS
BIG PINEY      LGT SNOW  10   7  87 SW7       29.41F VSB 3/4 WCI  -1
PINEDALE       LGT SNOW  14  10  85 W8        29.41S WCI   3
DUBOIS         NOT AVBL
LANDER         LGT SNOW   2  -3  80 E3        29.63F
RIVERTON       LGT SNOW   2  -5  72 N8        29.66S WCI -12
CASPER         SNOW      -3  -7  82 NE16      29.68F VSB 1/2 WCI -24
DOUGLAS        HVY SNOW   1  -4  79 SE16      29.78R VSB 1/4 WCI -19

$$
WYZ021-027>030-104>119-191800-
SOUTHERN WYOMING

CITY           SKY/WX    TMP DP  RH WIND       PRES   REMARKS
EVANSTON       HVY SNOW  13   9  84 E12       29.38R VSB 1/4 WCI  -1
ROCK SPRINGS   SNOW       1  -6  72 NE25G32   29.46S VSB 1/2 WCI -23
DIXON          LGT SNOW   7   1  77 W8        29.43S WCI  -6
RAWLINS        CLOUDY    -1  -6  79 NE18      29.44S HAZE    WCI -22
SARATOGA       LGT SNOW   3   0  85 W10       29.39F WCI -12
LARAMIE        FAIR       7   2  80 SE35G43   29.34F WCI -18
CHEYENNE       CLOUDY     4   2  91 E10       29.60F FOG     WCI -11
TORRINGTON     CLOUDY     4  -2  76 NE13      29.81F WCI -13
PINE BLUFFS    CLOUDY     7   1  78 NE6       29.72S WCI  -3

$$




USA.gov is the U.S. government's official web portal to all federal, state and local government web resources and services.